Weather in Teplyy Klyuch

Russia / Sakha (Yakutia) Republic     62°46′59″N   136°48′36″E
temp.,
°C
wind,
m/s
gust,
m/s
humid.,
%
clouds,
%
prec.,
mm/h
press.,
hPa
HPBL,
m
4 december, sat
sat400:00−41ese339756 0.0 102110
03:00−41ese339343 0.0 102211
06:00−42e33906 0.0 102310
09:00−42e33875 0.0 102310
12:00−39e22855 0.0 102011
15:00−41e33845 0.0 10199
18:00−41e22805 0.0 10169
21:00−38e3378100 0.0 101221
5 december, sun
sun500:00−33e2275100 0.0 100853
03:00−28ene2276100 0.0 100446
06:00−27e1178100 0.0 100213
09:00−26ese1180100 0.0 100215
12:00−23sse1170100 0.0 100281
15:00−23sse1299100 0.2 100265
18:00−21ese2299100 0.3 100247
21:00−20ese1299100 0.8 100258
6 december, mon
mon600:00−19s2498100 0.5 1002104
03:00−19ssw4898100 1.1 1003478
06:00−19ssw3698100 0.5 1005233
09:00−20se22100100 0.8 100526
12:00−19w2298100 0.4 1005148
15:00−21wsw3699100 0.9 1007248
18:00−23sw2399100 0.4 101170
21:00−25wnw11100100 0.6 10129
7 december, tue
tue700:00−27n22100100 0.1 10139
03:00−27nw33100100 0.3 101456
06:00−29wnw34100100 0.1 101665
09:00−33w22100100 0.3 101833
12:00−35w21100100 0.1 102027
15:00−37s11100100 0.1 10239
18:00−40se11100100 0.0 10258
21:00−42ese22100100 0.1 10278
8 december, wed
wed800:00−44ese329958 0.0 10299
03:00−44ese329526 0.0 10319
06:00−44ese33918 0.0 103210
09:00−44e33875 0.0 103210
12:00−40e32825 0.0 103118
15:00−42e32825 0.0 10299
18:00−42e33803 0.0 10289
21:00−38ene33775 0.0 102415